TimeEDT,TemperatureF,Dew PointF,Humidity,Sea Level PressureIn,VisibilityMPH,Wind Direction,Wind SpeedMPH,Gust SpeedMPH,PrecipitationIn,Events,Conditions,WindDirDegrees,DateUTC
12:15 AM,44.6,39.2,81,29.97,10.0,Calm,Calm,-,N/A,,Clear,0,2011-10-19 04:15:00
12:55 AM,44.6,41.0,87,29.97,10.0,Calm,Calm,-,N/A,,Clear,0,2011-10-19 04:55:00
1:15 AM,44.6,39.2,81,29.96,10.0,Calm,Calm,-,N/A,,Clear,0,2011-10-19 05:15:00
1:35 AM,42.8,37.4,81,29.98,10.0,Calm,Calm,-,N/A,,Clear,0,2011-10-19 05:35:00
1:55 AM,42.8,37.4,81,29.98,10.0,Calm,Calm,-,N/A,,Clear,0,2011-10-19 05:55:00
2:15 AM,41.0,37.4,87,29.99,10.0,Calm,Calm,-,N/A,,Clear,0,2011-10-19 06:15:00
2:35 AM,42.8,37.4,81,29.99,10.0,Calm,Calm,-,N/A,,Clear,0,2011-10-19 06:35:00
2:55 AM,42.8,37.4,81,29.99,10.0,Calm,Calm,-,N/A,,Clear,0,2011-10-19 06:55:00
3:15 AM,42.8,37.4,81,29.99,10.0,Calm,Calm,-,N/A,,Clear,0,2011-10-19 07:15:00
3:35 AM,42.8,37.4,81,29.99,10.0,Calm,Calm,-,N/A,,Partly Cloudy,0,2011-10-19 07:35:00
3:55 AM,44.6,39.2,81,29.99,10.0,Calm,Calm,-,N/A,,Partly Cloudy,0,2011-10-19 07:55:00
4:15 AM,42.8,39.2,87,29.99,10.0,Calm,Calm,-,N/A,,Clear,0,2011-10-19 08:15:00
4:35 AM,42.8,39.2,87,30.01,10.0,Calm,Calm,-,N/A,,Clear,0,2011-10-19 08:35:00
4:55 AM,42.8,37.4,81,30.03,10.0,Calm,Calm,-,N/A,,Clear,0,2011-10-19 08:55:00
5:15 AM,44.6,39.2,81,30.02,10.0,Calm,Calm,-,N/A,,Clear,0,2011-10-19 09:15:00
5:35 AM,42.8,37.4,81,30.02,10.0,Calm,Calm,-,N/A,,Clear,0,2011-10-19 09:35:00
5:55 AM,44.6,39.2,81,30.02,10.0,Calm,Calm,-,N/A,,Clear,0,2011-10-19 09:55:00
6:15 AM,44.6,39.2,81,30.03,10.0,Calm,Calm,-,N/A,,Clear,0,2011-10-19 10:15:00
6:35 AM,44.6,39.2,81,30.03,10.0,Calm,Calm,-,N/A,,Clear,0,2011-10-19 10:35:00
6:55 AM,44.6,39.2,81,30.03,10.0,Calm,Calm,-,N/A,,Clear,0,2011-10-19 10:55:00
7:15 AM,44.6,39.2,81,30.04,10.0,Calm,Calm,-,N/A,,Clear,0,2011-10-19 11:15:00
7:35 AM,46.4,42.8,87,30.04,10.0,Calm,Calm,-,N/A,,Clear,0,2011-10-19 11:35:00
7:55 AM,50.0,46.4,87,30.05,10.0,NE,3.5,-,N/A,,Clear,40,2011-10-19 11:55:00
8:35 AM,51.8,46.4,82,30.05,10.0,NNE,6.9,-,N/A,,Clear,20,2011-10-19 12:35:00
8:55 AM,51.8,46.4,82,30.06,10.0,NNE,4.6,-,N/A,,Clear,30,2011-10-19 12:55:00
9:15 AM,51.8,48.2,88,30.06,10.0,NNE,4.6,-,N/A,,Clear,30,2011-10-19 13:15:00
9:35 AM,53.6,48.2,82,30.07,10.0,NE,5.8,-,N/A,,Mostly Cloudy,40,2011-10-19 13:35:00
9:55 AM,53.6,48.2,82,30.08,10.0,NE,5.8,-,N/A,,Overcast,50,2011-10-19 13:55:00
10:15 AM,53.6,48.2,82,30.07,10.0,NNE,4.6,-,N/A,,Mostly Cloudy,30,2011-10-19 14:15:00
10:35 AM,53.6,48.2,82,30.07,10.0,NE,4.6,-,N/A,,Scattered Clouds,40,2011-10-19 14:35:00
10:55 AM,55.4,48.2,77,30.07,10.0,NE,5.8,-,N/A,,Partly Cloudy,40,2011-10-19 14:55:00
11:15 AM,55.4,48.2,77,30.06,10.0,NE,6.9,-,N/A,,Mostly Cloudy,40,2011-10-19 15:15:00
11:35 AM,53.6,48.2,82,30.07,10.0,NE,9.2,-,N/A,,Overcast,40,2011-10-19 15:35:00
12:15 PM,53.6,48.2,82,30.05,10.0,NE,8.1,-,0.01,,Overcast,40,2011-10-19 16:15:00
12:35 PM,53.6,48.2,82,30.06,10.0,ENE,6.9,-,0.01,,Overcast,70,2011-10-19 16:35:00
12:55 PM,53.6,48.2,82,30.04,10.0,NE,8.1,-,0.01,,Overcast,50,2011-10-19 16:55:00
1:15 PM,55.4,48.2,77,30.04,10.0,ENE,8.1,-,N/A,,Scattered Clouds,60,2011-10-19 17:15:00
1:35 PM,55.4,48.2,77,30.04,10.0,NNE,8.1,-,N/A,,Mostly Cloudy,30,2011-10-19 17:35:00
1:55 PM,53.6,46.4,77,30.02,10.0,NE,10.4,-,N/A,,Mostly Cloudy,40,2011-10-19 17:55:00
2:15 PM,53.6,46.4,77,30.00,10.0,NE,11.5,-,N/A,,Mostly Cloudy,40,2011-10-19 18:15:00
2:55 PM,55.4,46.4,72,30.00,10.0,NE,11.5,-,N/A,,Overcast,50,2011-10-19 18:55:00
3:15 PM,55.4,46.4,72,29.99,10.0,NE,10.4,-,N/A,,Overcast,50,2011-10-19 19:15:00
4:15 PM,53.6,46.4,77,29.97,10.0,ENE,11.5,-,0.02,,Overcast,60,2011-10-19 20:15:00
4:35 PM,51.8,46.4,82,29.98,7.0,ENE,13.8,-,0.04,,Overcast,60,2011-10-19 20:35:00
4:55 PM,51.8,46.4,82,29.98,8.0,ENE,11.5,-,0.06,,Overcast,70,2011-10-19 20:55:00
5:15 PM,51.8,46.4,82,29.97,5.0,ENE,12.7,21.9,0.02,,Overcast,60,2011-10-19 21:15:00
5:35 PM,51.8,46.4,82,29.97,9.0,ENE,13.8,19.6,0.04,,Overcast,70,2011-10-19 21:35:00
5:55 PM,53.6,46.4,77,29.96,9.0,ENE,16.1,21.9,0.04,,Overcast,60,2011-10-19 21:55:00
6:15 PM,53.6,46.4,77,29.95,8.0,ENE,13.8,20.7,0.01,,Overcast,60,2011-10-19 22:15:00
6:35 PM,53.6,48.2,82,29.95,10.0,NE,13.8,19.6,0.01,,Overcast,50,2011-10-19 22:35:00
6:55 PM,53.6,48.2,82,29.94,10.0,NE,15.0,19.6,0.02,,Overcast,50,2011-10-19 22:55:00
7:15 PM,53.6,48.2,82,29.92,8.0,NE,13.8,18.4,N/A,,Overcast,50,2011-10-19 23:15:00
7:35 PM,53.6,48.2,82,29.90,10.0,NE,15.0,19.6,0.01,,Overcast,50,2011-10-19 23:35:00
7:55 PM,53.6,48.2,82,29.90,10.0,NE,13.8,23.0,0.01,,Overcast,50,2011-10-19 23:55:00
8:15 PM,53.6,48.2,82,29.88,8.0,NE,16.1,20.7,0.02,,Overcast,50,2011-10-20 00:15:00
8:35 PM,53.6,48.2,82,29.88,5.0,NE,12.7,23.0,0.04,,Overcast,50,2011-10-20 00:35:00
8:55 PM,53.6,48.2,82,29.87,5.0,NE,18.4,24.2,0.06,,Overcast,50,2011-10-20 00:55:00
9:15 PM,53.6,48.2,82,29.87,4.0,NE,12.7,20.7,0.02,,Overcast,50,2011-10-20 01:15:00
9:35 PM,53.6,48.2,82,29.86,4.0,NE,15.0,21.9,0.04,,Overcast,40,2011-10-20 01:35:00
9:55 PM,53.6,48.2,82,29.85,3.0,NE,15.0,21.9,0.09,,Overcast,40,2011-10-20 01:55:00
10:15 PM,51.8,48.2,88,29.84,3.0,NE,15.0,23.0,0.04,,Overcast,40,2011-10-20 02:15:00
10:35 PM,51.8,48.2,88,29.81,3.0,NE,17.3,23.0,0.08,,Overcast,40,2011-10-20 02:35:00
10:55 PM,51.8,48.2,88,29.80,3.0,NE,18.4,26.5,0.11,,Overcast,40,2011-10-20 02:55:00
11:15 PM,51.8,48.2,88,29.79,3.0,NE,16.1,24.2,0.03,,Overcast,40,2011-10-20 03:15:00
11:35 PM,53.6,48.2,82,29.77,3.0,NE,18.4,24.2,0.05,,Overcast,40,2011-10-20 03:35:00
11:55 PM,53.6,48.2,82,29.77,2.5,NE,13.8,26.5,0.07,,Overcast,40,2011-10-20 03:55:00